Hourly Weather Goianapolis

Today, 5 December, Saturday

Time Temperature Precipitation Wind Pressure Humidity
00:00 +23°C° 0 mm 1 mps 678 mmHg 73%
01:00 +23°C° 0 mm 1 mps 677 mmHg 74%
02:00 +21°C° 0 mm 0 mps 677 mmHg 74%
03:00 +21°C° 0 mm 0 mps 677 mmHg 74%
04:00 +20°C° 0.4 mm 0 mps 677 mmHg 78%
05:00 +20°C° 0.4 mm 0 mps 677 mmHg 81%
06:00 +22°C° 0.4 mm 1 mps 677 mmHg 84%
07:00 +22°C° 0 mm 0 mps 678 mmHg 75%
08:00 +25°C° 0 mm 0 mps 679 mmHg 66%
09:00 +28°C° 0 mm 0 mps 680 mmHg 57%
10:00 +29°C° 0.2 mm 0 mps 680 mmHg 52%
11:00 +32°C° 0.2 mm 1 mps 680 mmHg 47%
12:00 +34°C° 0.2 mm 1 mps 680 mmHg 43%
13:00 +31°C° 1 mm 2 mps 679 mmHg 53%
14:00 +29°C° 1 mm 3 mps 677 mmHg 63%
15:00 +26°C° 1 mm 4 mps 676 mmHg 74%
16:00 +24°C° 5.7 mm 3 mps 676 mmHg 79%
17:00 +22°C° 5.7 mm 3 mps 675 mmHg 84%
18:00 +20°C° 5.7 mm 3 mps 675 mmHg 89%
19:00 +20°C° 0.8 mm 2 mps 675 mmHg 88%
20:00 +21°C° 0.8 mm 1 mps 676 mmHg 88%
21:00 +21°C° 0.8 mm 1 mps 677 mmHg 87%
22:00 +21°C° 1.6 mm 1 mps 677 mmHg 89%
23:00 +21°C° 1.6 mm 1 mps 677 mmHg 90%

Tomorrow, 6 December, Sunday

Time Temperature Precipitation Wind Pressure Humidity
00:00 +21°C° 1.6 mm 1 mps 677 mmHg 92%
01:00 +21°C° 1.5 mm 1 mps 676 mmHg 92%
02:00 +21°C° 1.5 mm 1 mps 676 mmHg 93%
03:00 +21°C° 1.5 mm 1 mps 676 mmHg 93%
04:00 +21°C° 0.3 mm 1 mps 676 mmHg 93%
05:00 +21°C° 0.3 mm 1 mps 676 mmHg 93%
06:00 +21°C° 0.3 mm 1 mps 676 mmHg 93%
07:00 +23°C° 0 mm 2 mps 677 mmHg 88%
08:00 +24°C° 0 mm 2 mps 677 mmHg 84%
09:00 +25°C° 0 mm 3 mps 678 mmHg 80%
10:00 +26°C° 0 mm 2 mps 678 mmHg 74%
11:00 +27°C° 0 mm 2 mps 678 mmHg 68%
12:00 +28°C° 0 mm 2 mps 677 mmHg 63%
13:00 +28°C° 0.2 mm 2 mps 677 mmHg 64%
14:00 +28°C° 0.2 mm 2 mps 676 mmHg 65%
15:00 +28°C° 0.2 mm 2 mps 676 mmHg 66%
16:00 +27°C° 1.1 mm 2 mps 675 mmHg 72%
17:00 +26°C° 1.1 mm 2 mps 675 mmHg 78%
18:00 +24°C° 1.1 mm 2 mps 675 mmHg 85%
19:00 +24°C° 0.1 mm 2 mps 675 mmHg 87%
20:00 +23°C° 0.1 mm 2 mps 675 mmHg 89%
21:00 +21°C° 0.1 mm 2 mps 675 mmHg 92%
22:00 +21°C° 0.1 mm 2 mps 676 mmHg 91%
23:00 +21°C° 0.1 mm 2 mps 676 mmHg 91%

Day after tomorrow, 7 December, Monday

Time Temperature Precipitation Wind Pressure Humidity
00:00 +21°C° 0.1 mm 2 mps 676 mmHg 91%
01:00 +21°C° 0.5 mm 2 mps 676 mmHg 92%
02:00 +20°C° 0.5 mm 2 mps 676 mmHg 93%
03:00 +20°C° 0.5 mm 2 mps 676 mmHg 94%
04:00 +21°C° 0.2 mm 1 mps 676 mmHg 94%
05:00 +21°C° 0.2 mm 1 mps 676 mmHg 94%
06:00 +21°C° 0.2 mm 1 mps 676 mmHg 95%
07:00 +22°C° 0.7 mm 1 mps 677 mmHg 93%
08:00 +22°C° 0.7 mm 1 mps 677 mmHg 90%
09:00 +23°C° 0.7 mm 1 mps 678 mmHg 88%
10:00 +23°C° 1.5 mm 1 mps 678 mmHg 88%
11:00 +23°C° 1.5 mm 2 mps 678 mmHg 88%
12:00 +24°C° 1.5 mm 2 mps 678 mmHg 89%
13:00 +23°C° 0.6 mm 2 mps 677 mmHg 89%
14:00 +23°C° 0.6 mm 2 mps 676 mmHg 90%
15:00 +21°C° 0.6 mm 2 mps 676 mmHg 90%
16:00 +23°C° 0 mm 2 mps 676 mmHg 90%
17:00 +23°C° 0 mm 2 mps 676 mmHg 90%
18:00 +23°C° 0 mm 2 mps 676 mmHg 89%
19:00 +21°C° 0.1 mm 2 mps 676 mmHg 91%
20:00 +21°C° 0.1 mm 2 mps 677 mmHg 92%
21:00 +20°C° 0.1 mm 2 mps 677 mmHg 93%
22:00 +20°C° 0.1 mm 2 mps 677 mmHg 93%
23:00 +20°C° 0.1 mm 2 mps 677 mmHg 93%

8 December, Tuesday

Time Temperature Precipitation Wind Pressure Humidity
00:00 +21°C° 0.1 mm 1 mps 677 mmHg 93%
01:00 +21°C° 0.1 mm 1 mps 677 mmHg 93%
02:00 +21°C° 0.1 mm 1 mps 676 mmHg 92%
03:00 +21°C° 0.1 mm 1 mps 676 mmHg 91%
04:00 +21°C° 0 mm 1 mps 676 mmHg 92%
05:00 +20°C° 0 mm 1 mps 676 mmHg 93%
06:00 +20°C° 0 mm 1 mps 677 mmHg 94%
07:00 +21°C° 0 mm 2 mps 677 mmHg 89%
08:00 +23°C° 0 mm 2 mps 678 mmHg 84%
09:00 +24°C° 0 mm 2 mps 679 mmHg 79%
10:00 +25°C° 0.8 mm 3 mps 678 mmHg 78%
11:00 +25°C° 0.8 mm 3 mps 678 mmHg 78%
12:00 +26°C° 0.8 mm 3 mps 678 mmHg 77%
13:00 +26°C° 0.3 mm 3 mps 677 mmHg 74%
14:00 +27°C° 0.3 mm 3 mps 677 mmHg 70%
15:00 +27°C° 0.3 mm 3 mps 676 mmHg 67%
16:00 +26°C° 0.6 mm 3 mps 676 mmHg 74%
17:00 +25°C° 0.6 mm 2 mps 676 mmHg 81%
18:00 +23°C° 0.6 mm 2 mps 675 mmHg 88%
19:00 +23°C° 0.1 mm 2 mps 676 mmHg 88%
20:00 +22°C° 0.1 mm 1 mps 676 mmHg 88%
21:00 +22°C° 0.1 mm 1 mps 676 mmHg 88%
22:00 +22°C° 0.1 mm 1 mps 676 mmHg 88%
23:00 +21°C° 0.1 mm 1 mps 676 mmHg 88%

9 December, Wednesday

Time Temperature Precipitation Wind Pressure Humidity
00:00 +21°C° 0.1 mm 1 mps 676 mmHg 88%
01:00 +21°C° 0.3 mm 1 mps 676 mmHg 90%
02:00 +21°C° 0.3 mm 1 mps 676 mmHg 92%
03:00 +20°C° 0.3 mm 1 mps 675 mmHg 93%
04:00 +20°C° 0.3 mm 1 mps 676 mmHg 94%
05:00 +19°C° 0.3 mm 2 mps 676 mmHg 95%
06:00 +19°C° 0.3 mm 2 mps 676 mmHg 95%
07:00 +20°C° 0.1 mm 2 mps 677 mmHg 92%
08:00 +21°C° 0.1 mm 3 mps 677 mmHg 89%
09:00 +21°C° 0.1 mm 3 mps 678 mmHg 86%
10:00 +24°C° 0.1 mm 3 mps 678 mmHg 78%
11:00 +26°C° 0.1 mm 4 mps 678 mmHg 71%
12:00 +28°C° 0.1 mm 4 mps 678 mmHg 64%
13:00 +27°C° 0.5 mm 4 mps 677 mmHg 68%
14:00 +27°C° 0.5 mm 4 mps 676 mmHg 72%
15:00 +27°C° 0.5 mm 4 mps 676 mmHg 75%
16:00 +26°C° 1.4 mm 4 mps 676 mmHg 79%
17:00 +25°C° 1.4 mm 3 mps 675 mmHg 83%
18:00 +24°C° 1.4 mm 2 mps 675 mmHg 88%
19:00 +23°C° 1.7 mm 2 mps 676 mmHg 90%
20:00 +21°C° 1.7 mm 2 mps 676 mmHg 92%
21:00 +20°C° 1.7 mm 2 mps 676 mmHg 94%
22:00 +20°C° 1.5 mm 2 mps 676 mmHg 95%
23:00 +21°C° 1.5 mm 1 mps 676 mmHg 95%

10 December, Thursday

Time Temperature Precipitation Wind Pressure Humidity
00:00 +21°C° 1.5 mm 1 mps 676 mmHg 96%
01:00 +21°C° 1.7 mm 1 mps 676 mmHg 96%
02:00 +21°C° 1.7 mm 1 mps 675 mmHg 96%
03:00 +21°C° 1.7 mm 1 mps 675 mmHg 96%
04:00 +20°C° 6.6 mm 1 mps 675 mmHg 97%
05:00 +20°C° 6.6 mm 1 mps 675 mmHg 97%
06:00 +20°C° 6.6 mm 1 mps 675 mmHg 98%
07:00 +19°C° 4.3 mm 2 mps 676 mmHg 97%
08:00 +19°C° 4.3 mm 3 mps 676 mmHg 97%
09:00 +20°C° 4.3 mm 3 mps 677 mmHg 96%
10:00 +20°C° 3.7 mm 3 mps 676 mmHg 96%
11:00 +20°C° 3.7 mm 3 mps 676 mmHg 96%
12:00 +20°C° 3.7 mm 3 mps 676 mmHg 95%
13:00 +20°C° 1.9 mm 3 mps 676 mmHg 95%
14:00 +20°C° 1.9 mm 3 mps 675 mmHg 95%
15:00 +20°C° 1.9 mm 3 mps 675 mmHg 95%
16:00 +20°C° 0.5 mm 3 mps 675 mmHg 95%
17:00 +20°C° 0.5 mm 2 mps 674 mmHg 94%
18:00 +19°C° 0.5 mm 2 mps 674 mmHg 94%
19:00 +19°C° 0.1 mm 2 mps 675 mmHg 94%
20:00 +19°C° 0.1 mm 2 mps 675 mmHg 94%
21:00 +19°C° 0.1 mm 2 mps 675 mmHg 94%
22:00 +19°C° 0.3 mm 3 mps 676 mmHg 95%
23:00 +19°C° 0.3 mm 3 mps 676 mmHg 95%
Show more

We Need Your Consent

Meteoprog and our Service Providers may store and access personal data such as cookies, device identifiers or other similar technologies on your device and process such data to personalise content and ads, as well as provide social media features and to analyse the traffic.

  • Store and/or access information on your device

    Cookies, device identifiers or other information can be stored or accessed on your device for the purposes indicated above.

  • Personalised ads and content, ad and content measurement, audience insights, and products development

    Ads and content can be personalised based on a profile. More data can be added to better personalise ads and content. Ad and content performance can be measured. Insights about the audience who saw the ads and content can be derived. Such data can be used to develop or improve user’s experience, systems and software.

By clicking ‘I Agree’ you will allow the use of indicated cookies, device identifiers, web beacons or other similar technologies. Your settings can be changed in the browser on your device.

For certain purposes, legitimate interests may be relied on, rather than consent. You can read more about this in our Privacy and Cookie Policy.